Tracking 31027 objects as of 19-Jul-2025
HD Live streaming from Space Station
objects crossing your sky now

STARLINK-30853

Track STARLINK-30853 now!
10-day predictions
STARLINK-30853 is classified as:


NORAD ID: 58236
Int'l Code: 2023-171G
Perigee: 565.7 km
Apogee: 566.8 km
Inclination: 43.0 °
Period: 95.8 minutes
Semi major axis: 6937 km
RCS: Unknown
Launch date: November 8, 2023
Source: United States (US)
Launch site: AIR FORCE EASTERN TEST RANGE (AFETR)
Your satellite tracking list
DELTA 1 DEB
Track 1 satellite(s)




NASA's NSSDC Master Catalog

Two Line Element Set (TLE):
1 58236U 23171G   25199.49668681  .00000494  00000-0  51601-4 0  9996
2 58236  43.0026 118.8013 0000807 258.5576 101.5176 15.02537429 94514
Source of the keplerian elements: AFSPC